{"data":{"norad_id":57446,"intl_designator":"2023-105S","name":"STARLINK-30162","alt_names":[],"object_type":"PAYLOAD","status":"ACTIVE","operator":null,"country":"US","launch_date":"2023-07-24","launch_site_code":"AFETR","launch_vehicle":null,"mission":null,"orbit_class":"UNKNOWN","rcs_meters":null,"size_class":null,"mass_kg":null,"dimensions":null,"purposes":["comms"],"wikipedia_slug":null,"has_3d_model":false,"image_url":null,"decayed_at":null,"tle_current":{"epoch":"2026-05-25T01:43:15.756960Z","epoch_age_seconds":79237,"freshness":"FRESH","line1":"1 57446U 23105S   26145.07171015 -.00000745  00000+0 -17545-4 0  9990","line2":"2 57446  43.0035 177.4306 0001261 291.0292  69.0425 15.27585463157393","mean_motion":15.27585463,"eccentricity":0.0001261,"inclination_deg":43.0035,"raan_deg":177.4306,"arg_perigee_deg":291.0292,"mean_anomaly_deg":69.0425,"bstar":-1.7545e-5,"rev_number":15739,"period_min":94.266411593889,"perigee_km":482.16754439715,"apogee_km":483.89793140505,"semimajor_km":6861.1697379011,"source":"CELESTRAK","updated_at":"2026-05-25T13:38:18.321461Z"}}}